Flag for Italy Weather past 2 weeks in Bologna, Italy

Now
59 °F

Passing clouds.


Feels Like: 57 °F
Forecast: 56 / 68 °F
Wind: 9 mph from Southeast

Location: Bologna / Borgo Panigale

Current Time: Apr 27, 2015 at 12:33:29 AM

Latest Report: Apr 26, 2015 at 11:50 PM


Visibility: N/A

Pressure: 29.83 "Hg

Humidity: 94%

Dew point: 57 °F

Location of BolognaLocation

Historic Weather in Bologna — Graph

°F

Bologna temperature yesterday

Maximum temperature yesterday: 70 °F (at 12:50 PM)
Minimum temperature yesterday: 54 °F (at 4:20 AM)
Average temperature yesterday: 61 °F

Past Weeks' High & Low Weather Summary

 TemperatureHumidityPressure
High79 °F (Apr 15, 3:50 PM)100% (Apr 15, 6:20 AM)30.45 "Hg (Apr 15, 6:20 AM)
Low39 °F (Apr 20, 4:20 AM)27% (Apr 23, 2:50 PM)29.83 "Hg (Apr 26, 10:50 PM)
Average61 °F63%30.10 "Hg
* Reported Apr 11 10:20 PM — Apr 26 10:50 PM, Bologna, Weather by CustomWeather, © 2015

Note: Actual official high and low records may vary slightly from our data, if they occured in-between our weather recording intervals... More about our weather records

Advertising

Bologna weather history for previous 24 hours

 ConditionsComfort  
Time TempWeatherWind HumidityBarometerVisibility
10:50 PM
Sun, Apr 26
59 °FPassing clouds.5 mph94%29.83 "HgN/A
10:20 PM59 °FPassing clouds.5 mph94%29.86 "HgN/A
9:50 PM59 °FPassing clouds.7 mph94%29.86 "HgN/A
9:20 PM59 °FPassing clouds.7 mph94%29.86 "HgN/A
8:50 PM59 °FScattered clouds.8 mph94%29.86 "HgN/A
8:20 PM59 °FScattered clouds.6 mph94%29.86 "HgN/A
7:50 PM59 °FScattered clouds.5 mph94%29.86 "HgN/A
7:20 PM59 °FPartly sunny.5 mph94%29.86 "HgN/A
6:50 PM59 °FStrong thunderstorms. Partly sunny.7 mph88%29.86 "Hg1 mi
6:20 PM66 °FThunderstorms. Partly sunny.3 mph78%29.86 "HgN/A
5:50 PM66 °FPartly sunny.5 mph78%29.86 "HgN/A
5:20 PM66 °FScattered clouds.3 mph73%29.86 "HgN/A
4:50 PM66 °FScattered clouds.2 mph68%29.86 "HgN/A
4:20 PM64 °FScattered clouds.3 mph78%29.86 "HgN/A
3:50 PM61 °FScattered clouds.2 mph88%29.89 "HgN/A
3:20 PM59 °FStrong thunderstorms. Scattered clouds.13 mph88%29.89 "Hg2 mi
2:50 PM70 °FScattered clouds.6 mph57%29.89 "HgN/A
2:20 PM70 °FScattered clouds.6 mph60%29.89 "Hg5 mi
1:50 PM70 °FPassing clouds.7 mph60%29.92 "Hg5 mi
1:20 PM70 °FPassing clouds.5 mph64%29.92 "Hg5 mi
12:50 PM70 °FPassing clouds.3 mph60%29.92 "Hg4 mi
12:20 PM68 °FPassing clouds.3 mph64%29.95 "Hg4 mi
11:50 AM66 °FPassing clouds.5 mph68%29.95 "Hg4 mi
11:20 AM66 °FClear.5 mph73%29.95 "Hg4 mi
10:50 AM66 °FClear.1 mph68%29.95 "Hg4 mi
10:20 AM64 °FClear.2 mph73%29.95 "Hg4 mi
9:50 AM63 °FClear.1 mph73%29.95 "Hg5 mi
9:20 AM63 °FClear.2 mph77%29.95 "Hg5 mi
8:50 AM61 °FClear.1 mph72%29.95 "Hg5 mi
8:20 AM59 °FClear.2 mph72%29.95 "Hg5 mi
7:50 AM59 °FClear.No wind77%29.95 "Hg5 mi
7:20 AM55 °FClear.2 mph88%29.95 "Hg4 mi
6:50 AM54 °FClear.6 mph94%29.95 "Hg4 mi
6:20 AM54 °FClear.6 mph94%29.95 "Hg4 mi
5:50 AM54 °FFog.5 mph94%29.95 "Hg3 mi
5:20 AM55 °FFog.6 mph94%29.95 "Hg3 mi
4:50 AM55 °FFog.3 mph94%29.95 "Hg3 mi
4:20 AM54 °FFog.2 mph94%29.95 "Hg3 mi
3:50 AM55 °FFog.3 mph94%29.98 "Hg3 mi
3:20 AM55 °FFog.2 mph94%29.95 "Hg3 mi
2:50 AM57 °FFog.1 mph88%29.95 "Hg3 mi
2:20 AM57 °FPassing clouds.6 mph88%29.98 "Hg4 mi
1:50 AM59 °FPassing clouds.6 mph88%29.98 "Hg4 mi
1:20 AM59 °FPassing clouds.5 mph88%29.98 "Hg4 mi
12:50 AM59 °FPassing clouds.5 mph88%29.98 "Hg5 mi
12:20 AM59 °FPassing clouds.3 mph88%29.98 "Hg5 mi
Weather by CustomWeather, © 2015

See weather overviewHow to use our weather pages